Probability
0 0 0 0 0 0 0 0 0 0 0 0 0 0 0 0 1 2 5 24 61 81 78 73 67 51 30 16 10 5 2 1 1 1 0 0 0 0 0 0 0 0 0 0 0 0 0 0 0
0 0 0 0 0 0 0 0 0 0 0 0 0 0 0 0 1 4 11 31 61 74 70 69 69 57 39 24 15 8 5 2 2 1 1 0 0 0 0 0 0 0 0 0 0 0 0 0 0
0 0 0 0 0 0 0 0 0 0 0 0 0 0 1 2 4 11 21 35 54 62 61 70 73 64 51 37 26 18 11 5 4 3 2 1 1 1 1 0 0 0 0 0 0 0 0 0 0
0 0 0 0 0 0 0 0 0 0 0 0 0 0 4 9 15 23 27 32 46 57 64 72 75 69 61 51 40 31 21 11 7 6 4 3 4 3 2 1 0 0 0 0 0 0 0 0 0
0 0 0 0 0 0 0 0 0 0 0 0 0 2 10 22 30 31 24 26 44 61 70 73 74 73 69 62 54 46 35 24 17 13 11 10 9 7 3 1 0 0 0 0 0 0 0 0 0
0 0 0 0 0 0 0 0 0 0 0 0 0 4 19 36 43 35 24 25 44 66 76 75 72 71 69 67 65 62 55 44 33 25 20 18 14 9 4 2 1 0 0 0 0 0 0 0 0
0 0 0 0 0 0 0 0 0 0 0 0 0 7 30 53 55 42 31 31 49 70 80 77 71 67 63 64 67 70 69 61 50 38 29 22 15 8 4 3 2 1 0 0 0 0 0 0 0
0 0 0 0 0 0 0 0 0 0 0 0 0 10 37 61 61 49 39 40 56 74 81 76 70 64 59 59 64 71 73 68 57 42 30 20 10 4 2 3 4 2 1 0 0 0 0 0 0
0 0 0 0 0 0 0 0 0 0 0 0 1 13 39 57 55 47 43 48 63 77 78 70 64 60 55 55 64 71 68 60 48 36 25 14 5 1 1 4 6 4 1 0 0 0 0 0 0
0 0 0 0 0 0 0 0 0 0 0 0 2 13 33 47 46 40 42 54 70 81 78 64 54 52 49 54 68 70 59 45 34 26 20 11 5 3 5 10 12 6 1 1 1 1 0 0 0
0 0 0 0 0 0 0 0 0 0 0 0 1 8 22 35 38 35 40 56 75 85 80 63 51 46 46 57 71 67 54 41 28 24 22 15 10 10 16 22 18 8 3 2 2 2 1 0 0
0 0 0 0 0 0 0 0 0 0 0 0 1 5 15 26 34 36 42 58 77 87 83 70 60 54 53 65 72 61 50 42 33 32 31 24 18 17 24 29 20 8 3 3 3 2 1 0 0
0 0 0 0 0 0 0 0 0 0 0 0 2 8 16 25 32 41 51 65 79 87 86 79 74 70 70 75 73 60 51 46 44 46 43 33 26 25 30 32 23 11 4 3 2 3 3 2 2
0 0 0 0 0 0 0 0 0 0 1 2 7 13 21 27 35 48 64 75 82 86 85 84 83 82 82 81 77 68 62 59 58 60 55 42 36 40 45 42 30 16 9 9 8 7 9 7 5
0 0 0 0 0 0 0 0 0 1 2 6 13 20 26 32 41 55 72 83 85 83 81 82 82 82 82 81 79 74 70 69 70 72 67 54 48 55 60 54 40 24 19 23 23 19 18 15 11
0 0 0 0 0 0 0 0 0 1 4 11 19 27 33 38 46 58 72 83 85 81 78 77 75 76 78 78 75 71 67 67 71 74 72 62 56 60 63 58 48 37 32 35 34 29 25 22 19
0 0 0 0 0 0 0 0 0 3 7 15 24 33 38 43 49 56 67 78 82 79 76 73 70 71 73 73 68 63 58 58 60 63 64 59 55 56 56 55 53 48 43 41 36 33 31 28 26
0 0 0 0 0 0 0 0 2 5 11 19 28 36 41 44 47 50 58 69 75 75 74 72 70 70 69 66 60 52 46 44 45 47 50 50 47 47 47 49 51 52 51 47 42 40 39 34 32
0 0 0 0 0 0 0 2 5 8 14 22 29 35 40 41 40 41 46 55 61 65 68 67 66 66 65 61 54 44 36 33 33 32 35 38 38 38 38 41 46 52 56 55 51 49 45 40 39
0 0 0 0 0 0 1 3 7 11 16 22 28 34 37 35 31 31 35 39 44 50 54 57 58 57 56 55 52 43 34 28 25 22 22 26 30 33 35 39 44 50 55 56 55 53 47 43 43
0 0 0 0 0 0 1 4 9 14 19 24 28 31 31 28 23 22 24 26 30 35 40 44 48 48 47 49 48 41 31 25 20 16 15 19 25 29 33 37 38 41 46 47 47 48 46 43 42
0 0 0 0 0 0 0 3 9 17 22 22 23 25 24 19 16 15 16 17 19 24 28 33 38 40 40 42 41 35 28 22 16 13 13 16 21 25 27 28 27 28 31 32 32 35 39 38 36
0 0 0 0 0 0 0 2 8 17 20 18 18 18 16 12 11 12 11 11 12 15 20 25 30 32 34 35 33 27 23 17 11 10 10 12 14 18 18 17 16 17 18 19 20 23 26 27 26
0 0 0 0 0 0 0 1 6 12 16 18 16 14 12 11 11 11 11 10 9 9 14 21 25 26 29 30 26 21 16 11 7 6 7 7 8 9 9 9 8 9 10 11 11 12 13 13 13
0 0 0 0 0 0 0 1 4 9 15 17 16 13 11 10 10 11 11 10 8 7 11 18 22 23 24 24 19 15 12 7 4 4 5 4 4 4 3 2 2 3 3 4 4 5 4 4 4
0 0 0 0 0 0 0 2 6 10 13 14 13 11 9 7 7 8 9 9 8 7 9 14 18 19 18 17 13 10 8 5 4 4 4 3 3 2 1 0 0 0 0 0 1 1 1 1 1
0 0 0 0 0 0 0 3 7 9 10 10 9 7 6 6 6 7 7 8 8 8 8 9 12 14 13 10 7 5 4 4 4 4 3 3 2 1 0 0 0 0 0 0 0 0 0 0 0
0 0 0 0 0 0 0 1 4 6 7 6 5 5 5 6 6 6 6 6 7 7 6 6 7 9 8 5 4 3 3 4 3 3 3 2 1 0 0 0 0 0 0 0 0 0 0 0 0
0 0 0 0 0 0 0 0 2 4 5 4 3 4 5 6 6 6 5 4 3 3 3 3 3 4 3 2 3 3 3 3 3 2 2 1 0 0 0 0 0 0 0 0 0 0 0 0 0
0 0 0 0 0 0 0 0 1 3 6 4 1 2 3 4 5 5 4 3 1 1 1 1 1 1 1 2 3 3 3 3 2 1 1 0 0 0 0 0 0 0 0 0 0 0 0 0 0
Wind_Speed
9 12 11 9 9 11 17 19 13 6 2 5 4 4 6 5 6 7 6 6 17 20 18 17 17 18 19 18 17 16 16 15 14 13 12 12 12 11 11 11 11 10 10 10 10 10 10 9 9
10 14 11 9 10 13 16 16 12 3 6 4 2 1 3 4 9 11 9 10 18 20 17 17 18 18 19 19 18 17 17 16 15 14 13 12 12 11 11 11 10 10 10 10 10 10 9 9 9
12 16 10 10 15 16 18 9 3 2 4 1 2 2 1 4 8 9 12 13 17 18 17 17 18 18 18 19 19 18 17 17 16 15 14 13 12 11 11 11 10 10 10 10 10 10 9 9 8
9 10 9 11 17 20 21 14 4 2 2 2 4 2 1 6 6 9 13 14 17 18 18 18 17 18 18 18 19 18 18 17 16 15 14 13 12 11 11 10 10 10 10 9 10 9 9 8 8
11 9 12 14 18 18 16 11 6 4 5 4 3 5 2 8 11 12 10 12 16 17 17 18 16 17 17 18 18 18 18 16 15 15 14 13 12 11 11 11 10 10 10 9 9 9 8 8 7
9 10 13 15 19 17 14 10 7 7 9 8 7 7 3 10 11 10 11 10 13 17 18 16 17 18 17 18 17 17 17 16 15 14 13 13 12 11 11 11 10 10 9 9 9 8 8 7 6
12 12 15 18 16 14 9 5 5 7 10 10 8 6 5 11 10 8 11 10 11 16 18 15 15 15 16 16 16 16 16 16 15 14 13 13 12 12 11 10 10 10 10 9 9 8 7 6 5
12 12 17 17 16 14 8 3 4 8 10 9 8 5 4 11 11 9 10 11 12 14 16 15 15 14 14 13 16 16 15 15 15 15 14 13 13 12 11 11 10 10 10 9 9 8 7 6 5
15 13 15 16 14 10 5 3 5 5 8 10 8 3 8 14 12 10 10 10 11 13 15 15 16 15 14 14 14 15 15 14 14 13 14 13 10 10 10 11 12 11 10 10 9 8 7 7 7
12 12 17 14 11 10 9 7 7 7 9 9 9 6 9 12 12 11 12 13 14 14 15 14 16 16 15 13 12 10 10 11 10 10 11 9 7 8 10 12 14 12 11 10 10 9 8 7 6
15 17 16 14 9 8 11 12 10 10 11 10 9 6 5 9 10 11 12 12 13 15 15 15 14 14 14 10 10 7 7 9 9 10 11 8 6 6 6 6 8 8 10 8 8 8 7 7 6
15 15 14 12 10 9 10 12 12 12 11 10 8 6 4 5 5 7 9 11 12 14 15 15 15 14 13 11 10 8 7 8 8 8 10 7 4 4 6 5 7 7 6 6 7 6 8 7 6
14 13 13 12 11 11 12 13 13 13 12 10 9 6 4 4 5 6 6 8 11 12 14 14 11 11 8 7 8 9 7 8 7 6 8 7 5 5 5 5 5 7 6 7 6 7 6 5 4
11 11 12 12 12 12 13 14 14 13 12 9 8 6 4 4 2 1 3 4 7 10 9 9 9 10 8 6 6 6 6 5 7 6 8 8 6 5 4 4 4 4 4 5 4 4 3 3 2
10 13 14 14 14 13 12 14 14 11 8 7 6 3 2 3 3 3 4 2 5 6 6 5 7 8 7 7 6 4 4 4 4 4 6 6 5 4 3 3 3 3 2 2 2 2 1 2 2
12 14 16 15 13 10 9 12 9 5 4 4 2 1 2 3 6 7 7 4 3 5 6 7 8 9 7 5 4 3 3 4 3 3 4 5 4 4 3 3 3 3 2 2 2 1 1 2 1
15 15 15 8 8 7 9 9 5 0 2 3 0 1 5 6 8 9 8 6 4 3 5 5 5 6 6 4 3 3 1 2 2 2 3 4 4 4 3 3 3 3 2 2 3 3 2 2 1
9 10 10 7 4 6 10 10 5 2 2 1 2 3 6 8 9 9 9 7 7 6 5 4 3 4 5 4 2 2 1 0 1 1 1 2 3 4 4 3 4 3 2 2 2 2 2 1 1
11 12 13 11 6 8 10 10 6 3 2 2 3 4 7 8 10 11 11 10 9 9 6 4 2 2 3 4 4 3 2 1 1 0 2 2 3 4 4 4 4 3 3 3 4 3 3 2 2
11 13 14 11 8 8 11 10 7 4 3 2 4 5 7 7 10 11 12 11 9 9 8 6 4 2 1 2 3 2 2 2 2 1 1 1 1 3 4 4 3 3 3 3 3 3 2 2 2
13 13 13 13 11 11 13 11 7 3 3 4 6 7 7 7 8 10 10 10 9 10 8 6 6 4 2 2 2 3 3 2 2 3 2 2 3 2 0 2 2 2 2 2 2 2 3 2 2
12 12 12 14 14 12 10 10 6 4 3 4 5 7 7 8 8 9 8 8 9 9 8 7 6 6 4 3 3 3 3 3 2 3 3 4 5 4 4 3 3 3 2 3 2 2 1 2 2
13 13 12 13 14 15 11 9 5 5 4 3 6 7 7 8 9 9 8 8 9 9 8 6 7 7 5 4 4 5 5 4 4 5 6 6 6 7 7 5 4 5 4 5 5 5 4 3 3
12 14 13 12 11 14 10 10 5 5 7 6 7 8 8 8 10 10 9 8 8 9 9 8 8 8 7 7 7 7 8 7 7 7 6 6 5 6 9 8 7 7 7 7 7 7 8 7 6
10 10 7 7 6 9 9 7 2 4 10 12 11 9 8 9 9 10 10 10 10 10 10 9 9 10 9 9 9 8 9 9 9 8 8 7 6 7 9 8 8 8 8 8 8 9 8 8 8
9 9 6 7 7 7 5 4 1 7 10 13 13 11 9 9 10 10 10 10 10 10 10 10 10 11 10 9 9 9 10 8 8 10 8 8 7 7 8 9 9 9 9 9 9 8 8 8 8
10 9 7 8 11 7 3 2 4 9 11 12 12 11 10 10 10 10 10 10 10 10 10 10 11 11 10 10 11 11 11 11 10 10 10 8 8 7 9 10 10 9 9 9 8 8 8 7 7
9 9 7 6 6 6 4 2 0 6 9 9 9 10 11 10 10 10 10 10 10 10 10 10 11 12 11 10 10 10 11 11 10 10 11 10 9 8 9 9 9 9 8 8 8 8 7 8 7
7 7 7 7 6 6 5 2 2 6 8 11 10 10 11 10 10 9 9 10 10 10 11 11 10 11 11 11 10 11 11 10 10 10 10 9 8 8 9 9 9 9 8 8 7 8 7 8 8
8 7 7 7 7 7 5 1 2 4 7 10 12 11 11 11 10 10 10 10 10 10 11 10 10 11 11 10 11 11 10 10 10 10 9 8 8 8 8 8 9 9 8 7 7 8 8 8 8
Wind_Direction
261 253 248 252 246 242 250 259 259 246 112 58 34 9 356 19 61 121 187 163 126 130 138 142 144 148 149 150 148 147 145 144 142 140 138 135 130 126 122 119 116 116 117 116 115 115 115 114 113
264 255 241 246 250 248 247 247 257 246 87 68 26 311 305 47 82 120 141 134 131 134 145 147 147 151 152 153 151 150 149 149 147 145 144 141 137 132 129 125 122 120 120 120 119 118 118 119 120
258 260 248 241 242 255 269 292 306 73 93 150 269 238 299 76 87 109 126 139 137 140 147 142 150 152 154 154 154 153 152 151 150 149 148 145 141 137 134 131 127 126 126 126 125 122 122 124 126
240 231 236 245 246 244 255 269 274 239 213 216 254 240 164 81 87 103 127 149 145 145 144 144 152 153 155 156 156 155 154 154 153 152 151 148 145 142 139 136 134 133 132 131 128 126 128 129 127
236 241 233 248 256 261 267 279 283 272 265 253 256 265 109 99 103 114 138 152 150 147 142 148 153 154 156 157 157 156 155 155 154 154 153 151 148 146 144 142 141 140 137 134 131 130 129 129 131
227 233 241 247 252 253 257 268 276 268 272 266 245 243 140 124 121 135 142 158 153 146 141 146 153 155 157 158 158 157 156 155 155 155 154 152 150 150 150 148 148 147 143 140 137 135 135 134 138
244 248 253 259 267 270 266 274 280 275 269 267 268 257 141 118 116 131 137 157 150 146 141 150 156 159 160 159 158 157 156 155 154 154 155 156 156 157 157 155 155 154 150 148 148 146 144 144 148
244 263 268 268 271 276 286 291 275 275 277 282 283 271 125 123 125 137 150 160 155 149 146 156 161 163 163 163 163 160 158 157 156 158 160 161 162 165 165 162 162 162 160 160 160 160 159 161 167
241 254 262 266 274 283 301 294 276 266 267 272 277 267 119 129 132 151 161 166 161 156 150 162 166 167 169 168 165 163 161 160 160 163 166 166 172 173 175 175 164 169 170 170 170 172 175 181 193
233 246 254 267 299 318 322 312 294 279 260 254 253 224 143 144 151 173 177 179 172 163 161 170 173 171 175 172 161 169 170 167 175 171 172 183 185 182 181 165 166 175 179 180 182 186 192 208 207
231 245 268 286 305 310 302 297 286 273 267 263 258 233 187 164 173 188 188 182 179 172 169 174 179 172 178 170 161 174 178 169 190 178 178 193 190 184 165 154 166 178 184 190 186 194 210 213 219
239 256 271 284 301 295 282 281 280 273 272 277 280 281 243 200 198 206 200 181 180 175 176 177 179 175 181 170 165 175 182 170 186 177 180 192 191 187 161 167 176 183 191 197 185 204 209 218 220
240 253 264 267 269 268 269 271 273 272 273 274 279 272 272 244 219 217 203 183 177 180 181 174 176 173 171 158 167 177 185 173 180 176 184 187 186 195 175 180 179 191 190 192 199 207 200 204 215
267 265 266 265 261 260 259 262 260 258 258 259 260 264 258 259 239 204 149 166 173 174 182 170 162 161 159 159 170 173 184 167 181 175 184 195 192 190 175 179 184 209 190 185 198 215 186 182 216
264 273 268 254 247 248 255 256 251 253 248 250 255 265 294 325 355 30 53 91 163 160 162 154 154 160 165 171 178 174 182 172 176 166 171 198 206 180 180 175 180 224 209 172 167 226 194 185 205
253 252 255 242 224 228 242 265 269 242 226 245 250 319 10 40 34 35 36 44 96 139 152 157 170 164 163 159 168 185 189 176 174 157 162 199 204 177 187 181 191 210 208 166 170 212 196 189 193
243 246 255 240 200 224 237 264 277 274 210 236 96 28 42 51 47 42 37 45 49 100 126 142 147 146 149 155 177 208 193 174 160 150 173 192 204 189 189 198 194 197 199 184 197 181 198 190 198
279 260 274 280 222 236 251 255 242 225 228 165 81 74 62 51 43 39 35 41 35 49 80 114 142 147 144 145 164 228 219 82 78 89 215 188 206 214 197 195 196 200 189 198 195 164 178 194 180
305 304 299 295 288 274 267 268 255 229 201 148 104 86 72 61 53 44 33 35 33 35 49 70 91 130 148 153 170 204 209 189 122 130 234 190 201 217 214 210 193 200 194 201 193 186 187 188 168
284 281 281 285 281 271 272 270 261 248 216 171 115 90 86 72 57 46 32 29 36 32 31 39 39 33 155 171 166 173 155 140 147 155 52 12 215 213 213 207 191 197 193 198 187 178 177 180 163
267 277 287 294 288 260 260 265 271 244 159 117 106 88 80 69 62 52 38 24 27 31 22 20 27 32 45 115 143 142 134 146 149 108 79 45 45 27 116 148 154 152 160 164 164 170 186 175 141
275 282 287 287 285 280 269 269 253 208 173 133 111 99 84 77 68 59 46 29 24 23 20 16 29 36 34 77 125 140 136 125 110 102 94 61 53 49 46 71 88 85 94 102 103 84 100 130 137
284 292 289 285 280 277 275 270 265 165 194 157 107 93 79 77 74 66 53 40 26 19 21 23 36 44 34 54 95 117 109 102 96 95 81 65 54 50 50 56 70 75 75 78 77 71 68 73 76
286 287 284 283 280 273 280 275 250 177 178 155 118 104 91 82 72 63 60 53 38 25 22 28 42 45 38 50 66 85 99 106 106 97 89 75 61 52 52 58 63 69 69 70 73 73 71 71 73
276 279 287 298 291 281 316 305 322 151 157 147 136 127 102 88 77 61 48 46 40 32 24 35 49 51 46 57 70 81 91 96 95 89 81 76 66 58 54 59 62 68 71 72 73 72 70 69 70
283 273 266 279 279 277 301 287 64 102 119 121 123 118 102 87 76 68 54 48 43 39 35 43 55 59 56 59 69 73 76 77 77 77 80 77 73 69 68 69 66 67 72 74 74 76 73 69 69
281 278 271 271 278 282 250 214 114 110 114 118 122 117 107 93 81 73 63 55 51 50 48 49 57 62 63 67 72 71 75 80 81 83 83 82 80 80 77 77 75 70 69 71 74 75 71 69 66
261 284 292 288 302 296 285 260 170 157 154 143 133 120 107 97 87 78 70 63 58 58 63 60 63 67 67 69 75 79 78 81 84 83 83 83 83 83 82 79 80 77 73 73 75 76 74 75 71
278 275 287 295 305 306 307 317 155 176 176 157 132 117 111 101 90 82 78 74 72 71 67 66 67 71 72 74 77 80 82 83 83 82 84 86 87 85 84 82 80 77 74 72 75 77 74 73 70
292 292 292 294 304 305 308 337 58 126 147 134 117 108 101 98 93 88 84 81 75 73 72 70 71 73 73 75 76 76 79 81 82 83 84 85 85 84 83 82 81 80 77 72 75 79 75 73 70